Coal Valley, IL

7:00 PM CST on December 05, 2016 (GMT -0600)
Quad-City International

Weather History for KMLI - January, 2014

Change the Weather History Date:

Thursday, January 2, 2014

  Actual Average Record
Temperature  
Mean Temperature 3 °F 23 °F  
Max Temperature 14 °F 31 °F 62 °F (2004)
Min Temperature -9 °F 15 °F -27 °F (1979)
Degree Days  
Heating Degree Days 62 42  
Month to date heating degree days 115 84  
Since 1 July heating degree days 2831 2505  
Cooling Degree Days 0 0  
Month to date cooling degree days 0 0  
Year to date cooling degree days 0 0  
Moisture  
Dew Point 0 °F    
Average Humidity 76    
Maximum Humidity 87    
Minimum Humidity 64    
Precipitation  
Precipitation T in 0.06 in 1.38 in (1897)
Month to date precipitation 0.16 0.11  
Year to date precipitation 0.16 0.11  
Snow  
Snow T in 0.30 in - ()
Month to date snowfall 3.2 0.6  
Since 1 July snowfall 18.0 11.1  
Snow Depth 4.00 in    
Sea Level Pressure  
Sea Level Pressure 30.37 in    
Wind  
Wind Speed 7 mph (NW)    
Max Wind Speed 14 mph    
Max Gust Speed 18 mph    
Visibility 10 miles    
Events Snow    
T = Trace of Precipitation, MM = Missing Value Source: NWS Daily Summary

Daily Weather History Graph

Daily Weather History Graph

Search for Another Location

Airport or City:

Trip Planner

Search our weather history database for the weather conditions in past years. The results will help you decide how hot, cold, wet, or windy it might be!

Date:

Astronomy

Jan. 02, 2014 Rise Set
Actual Time 7:28 AM CST 4:44 PM CST
Civil Twilight 6:57 AM CST 5:15 PM CST
Nautical Twilight 6:22 AM CST 5:49 PM CST
Astronomical Twilight 5:48 AM CST 6:23 PM CST
Moon 8:08 AM CST (1/2) 6:42 PM CST (1/2)
Length of Visible Light 10h 18m
Length of Day
9h 15m
Waxing Crescent, 3% of the Moon is Illuminated
Jan 2
Waxing Crescent
Jan 7
First Quarter
Jan 15
Full
Jan 23
Last Quarter
Jan 30
New

Hourly Weather History & Observations

Time (CST) Temp. Windchill Dew Point Humidity Pressure Visibility Wind Dir Wind Speed Gust Speed Precip Events Conditions
12:52 AM 10.9 °F -2.6 °F 3.0 °F 70% 30.26 in 7.0 mi North 10.4 mph 17.3 mph N/A   Overcast
1:05 AM 10.4 °F -2.4 °F 3.2 °F 73% 30.22 in 10.0 mi North 9.2 mph - N/A   Overcast
1:52 AM 10.9 °F 1.4 °F 3.0 °F 70% 30.26 in 10.0 mi North 5.8 mph - N/A   Overcast
2:52 AM 10.0 °F 1.8 °F 1.0 °F 67% 30.27 in 10.0 mi NNE 4.6 mph - N/A   Overcast
3:09 AM 10.4 °F 0.8 °F 1.4 °F 67% 30.24 in 10.0 mi North 5.8 mph - N/A   Overcast
3:21 AM 10.4 °F 4.0 °F 1.4 °F 67% 30.24 in 10.0 mi North 3.5 mph - N/A   Overcast
3:28 AM 10.4 °F 0.8 °F 1.4 °F 67% 30.24 in 10.0 mi North 5.8 mph - N/A   Overcast
3:52 AM 10.0 °F -3.7 °F 1.0 °F 67% 30.27 in 10.0 mi NNW 10.4 mph - N/A   Overcast
4:52 AM 10.0 °F 0.4 °F 1.0 °F 67% 30.27 in 10.0 mi NNW 5.8 mph - N/A   Overcast
5:52 AM 10.0 °F 0.4 °F 1.0 °F 67% 30.29 in 10.0 mi NNW 5.8 mph - N/A   Overcast
6:52 AM 10.9 °F 4.7 °F 1.0 °F 64% 30.30 in 10.0 mi Variable 3.5 mph - N/A   Overcast
7:52 AM 10.9 °F 0.2 °F 1.9 °F 67% 30.32 in 10.0 mi NW 6.9 mph - 0.00 in Snow Light Snow
8:52 AM 10.0 °F -2.9 °F 1.9 °F 70% 30.34 in 9.0 mi NW 9.2 mph - 0.00 in   Overcast
9:52 AM 10.9 °F -2.6 °F 1.9 °F 67% 30.36 in 10.0 mi NNW 10.4 mph - N/A   Overcast
10:52 AM 12.0 °F -2.0 °F 3.0 °F 67% 30.36 in 10.0 mi North 11.5 mph - N/A   Mostly Cloudy
11:52 AM 14.0 °F 2.9 °F 3.9 °F 64% 30.35 in 10.0 mi NNW 8.1 mph - N/A   Mostly Cloudy
12:52 PM 14.0 °F 2.9 °F 3.9 °F 64% 30.36 in 10.0 mi NW 8.1 mph - N/A   Scattered Clouds
1:52 PM 14.0 °F 1.2 °F 3.9 °F 64% 30.37 in 10.0 mi NNW 10.4 mph - N/A   Scattered Clouds
2:52 PM 14.0 °F 2.9 °F 3.9 °F 64% 30.39 in 10.0 mi NNW 8.1 mph - N/A   Overcast
3:52 PM 12.9 °F 0.7 °F 3.9 °F 67% 30.41 in 7.0 mi NNW 9.2 mph - N/A   Mostly Cloudy
4:39 PM 12.2 °F 1.7 °F 3.2 °F 67% 30.39 in 7.0 mi NNW 6.9 mph - N/A   Scattered Clouds
4:52 PM 10.9 °F 0.2 °F 3.0 °F 70% 30.44 in 9.0 mi NW 6.9 mph - N/A   Scattered Clouds
4:59 PM 10.4 °F -1.5 °F 3.2 °F 73% 30.40 in 10.0 mi WNW 8.1 mph - N/A   Mostly Cloudy
5:13 PM 10.4 °F -1.5 °F 1.4 °F 67% 30.40 in 10.0 mi WNW 8.1 mph - N/A   Partly Cloudy
5:52 PM 8.1 °F -2.0 °F -0.0 °F 70% 30.47 in 10.0 mi WNW 5.8 mph - N/A   Partly Cloudy
6:52 PM 6.1 °F -4.3 °F -0.9 °F 73% 30.48 in 10.0 mi WNW 5.8 mph - N/A   Clear
7:52 PM 5.0 °F -5.6 °F -2.9 °F 70% 30.49 in 10.0 mi WNW 5.8 mph - N/A   Clear
8:52 PM 1.0 °F -10.3 °F -5.1 °F 75% 30.50 in 10.0 mi West 5.8 mph - N/A   Clear
9:52 PM -2.0 °F -10.1 °F -9.0 °F 72% 30.50 in 10.0 mi WSW 3.5 mph - N/A   Clear
10:52 PM -4.0 °F -14.6 °F -8.0 °F 83% 30.50 in 10.0 mi West 4.6 mph - N/A   Clear
11:52 PM -9.0 °F -18.2 °F -13.0 °F 83% 30.49 in 10.0 mi West 3.5 mph - N/A   Clear